Powrót do katalogu

STARLINK-30918

AktywnyŁącznośćVLEO
NORAD 58365·PAYLOAD·🇺🇸 United States

Wystrzelony Nov 18, 2023 z Cape Canaveral Space Force Station

Loading…

Następne Przeloty (najbliższe 24 godziny)

TLE

ŚwieżeSource: CelesTrak SupGP

Epoka: Sep 14, 2026, 22:04 UTC

1 58365C 23177Q   26257.91993056 -.00050853  00000+0 -18416-2 0  2572
2 58365  43.0019   2.0654 0001624 272.2420 179.8225 15.27608714    11

Śledź STARLINK-30918 w czasie rzeczywistym z AllMySat

Download on the App Store